Volver al catálogo

MOZHAYETS

ActivoRadioaficionadoSSO
NORAD 27560·PAYLOAD·🇷🇺 Russia

Lanzado Nov 28, 2002 desde Plesetsk Cosmodrome

Loading…

Próximos Pases (próximas 24 horas)

TLE

ActualizadoSource: Space-Track

Época: Sep 14, 2026, 15:26 UTC

1 27560U 02054B   26257.64328616  .00000350  00000-0  79375-4 0  9992
2 27560  98.4277 116.2138 0039283  98.3510 319.0259 14.61877813265347

Sigue MOZHAYETS en tiempo real con AllMySat

Download on the App Store